• Join FlightAware (Why Join?)
  • Login
  • US Flag 
04:50AM EST


 

Airport Tracker/Info


-or-


 

Live Flight TrackerFlight Track Log ✈ NKS612 ✈ 27-Apr-2013 ✈ KMSP - KORD

Flight Track Log - Related Links

Times and Time Zones

All times are in EDT time to prevent confusion due to time zone crossing. See the NKS612 flight status page for this flight to view local times or setup timezone preferences in your user account.

Time Position Orientation Groundspeed Altitude Reporting Facility
EDT Latitude Longitude Course Direction KTS MPH feet Rate Location/Type
07:12AM 44.8540 -93.2340 169° South 165 190 1,600  Level FlightAware
07:12AM 44.8300 -93.2290 172° South 189 217 2,600 1,745 Climbing FlightAware
07:13AM 44.8060 -93.2230 170° South 217 250 3,200 1,855 Climbing FlightAware
07:13AM 44.7740 -93.2140 169° South 251 289 4,300 2,600 Climbing FlightAware
07:14AM 44.7390 -93.1990 163° South 272 313 5,800 2,850 Climbing FlightAware
07:14AM 44.7310 -93.1870 133° Southeast 279 321 6,200 2,640 Climbing FlightAware
07:14AM 44.7250 -93.1630 109° East 285 328 6,900 3,257 Climbing FlightAware
07:15AM 44.7190 -93.1280 104° East 283 326 8,100 1,733 Climbing FlightAware
07:15AM 44.7130 -93.0860 101° East 284 327 8,200 133 Climbing FlightAware
07:15AM 44.7080 -93.0550 103° East 284 327 8,200  Level FlightAware
07:16AM 44.7010 -93.0090 102° East 284 327 8,200 3,300 Level FlightAware
07:16AM 44.6720 -92.9230 115° Southeast 368 423 11,500 3,257 Climbing FlightAware
07:17AM 44.6410 -92.8450 119° Southeast 374 430 12,000 375 Climbing FlightAware
07:18AM 44.6120 -92.7730 119° Southeast 374 430 12,000  Level FlightAware
07:18AM 44.5840 -92.7000 118° Southeast 374 430 12,000 2,241 Level FlightAware
07:23AM 44.2660 -91.9260 120° Southeast 459 528 24,700 2,365 Climbing FlightAware
07:24AM 44.2170 -91.8100 120° Southeast 467 537 25,600 1,280 Climbing FlightAware
07:25AM 44.1860 -91.7340 120° Southeast 470 541 26,300 1,292 Climbing FlightAware
07:25AM 44.1470 -91.6400 120° Southeast 474 545 27,000 1,200 Climbing FlightAware
07:26AM 44.0980 -91.5240 120° Southeast 477 549 27,900 1,400 Climbing FlightAware
07:27AM 44.0480 -91.4060 120° Southeast 472 543 29,100 1,624 Climbing FlightAware
07:27AM 44.0040 -91.3020 120° Southeast 466 536 30,200 1,425 Climbing FlightAware
07:28AM 43.9590 -91.1960 121° Southeast 461 531 31,000 565 Climbing FlightAware
07:29AM 43.9120 -91.0850 120° Southeast 460 529 31,000  Level FlightAware
07:29AM 43.8670 -90.9800 121° Southeast 462 532 31,000  Level FlightAware
07:30AM 43.8190 -90.8680 121° Southeast 461 531 31,000  Level FlightAware
07:31AM 43.7750 -90.7650 121° Southeast 460 529 31,000  Level FlightAware
07:31AM 43.7310 -90.6650 121° Southeast 460 529 31,000  Level FlightAware
07:32AM 43.6820 -90.5510 121° Southeast 460 529 31,000  Level FlightAware
07:33AM 43.6380 -90.4500 121° Southeast 459 528 31,000 -71 Level FlightAware
07:34AM 43.5890 -90.3380 121° Southeast 459 528 30,900 -494 Descending FlightAware
07:34AM 43.5470 -90.2410 121° Southeast 461 531 30,300 -975 Descending FlightAware
07:35AM 43.5020 -90.1400 122° Southeast 466 536 29,600 -988 Descending FlightAware
07:36AM 43.4510 -90.0240 121° Southeast 464 534 28,900 -975 Descending FlightAware
07:36AM 43.4110 -89.9340 121° Southeast 459 528 28,300 -975 Descending FlightAware
07:37AM 43.3620 -89.8240 121° Southeast 452 520 27,600 -1,067 Descending FlightAware
07:38AM 43.3130 -89.7140 121° Southeast 447 514 26,700 -1,694 Descending FlightAware
07:38AM 43.2720 -89.6220 121° Southeast 444 511 25,200 -2,400 Descending FlightAware
07:39AM 43.2220 -89.5120 122° Southeast 439 505 23,300 -2,400 Descending FlightAware
07:40AM 43.1810 -89.4200 121° Southeast 433 498 21,800 -2,400 Descending FlightAware
07:41AM 43.1280 -89.3360 131° Southeast 433 498 20,100 -2,471 Descending FlightAware
07:41AM 43.0440 -89.2960 161° South 417 480 18,300 -2,612 Descending FlightAware
07:42AM 42.9720 -89.2700 165° South 395 455 16,400 -3,318 Descending FlightAware
07:43AM 42.8970 -89.2400 164° South 387 445 13,600 -2,682 Descending FlightAware
07:43AM 42.8300 -89.2130 164° South 349 402 12,600 -900 Descending FlightAware
07:44AM 42.7730 -89.1910 164° South 316 364 12,400 -635 Descending FlightAware
07:45AM 42.7120 -89.1660 163° South 293 337 11,700 -1,129 Descending FlightAware
07:45AM 42.6590 -89.1450 164° South 287 330 10,800 -706 Descending FlightAware
07:46AM 42.6010 -89.1220 164° South 289 333 10,700 -71 Descending FlightAware
07:47AM 42.5550 -89.0920 154° Southeast 293 337 10,700  Level FlightAware
07:47AM 42.5450 -89.0660 118° Southeast 294 338 10,700  Level FlightAware
07:48AM 42.5260 -88.9990 111° Southeast 294 338 10,700  Level FlightAware
07:49AM 42.5030 -88.9220 112° Southeast 294 338 10,700  Level FlightAware
07:49AM 42.4820 -88.8530 112° Southeast 293 337 10,700  Level FlightAware
07:50AM 42.4610 -88.7840 112° Southeast 294 338 10,700 -494 Level FlightAware
07:51AM 42.4390 -88.7100 112° Southeast 289 333 10,000 -943 Descending FlightAware
07:51AM 42.4260 -88.6680 113° Southeast 288 331 9,600 -1,091 Descending FlightAware
07:52AM 42.4110 -88.6190 113° Southeast 281 323 9,000 -1,200 Descending FlightAware
07:52AM 42.4030 -88.5930 113° Southeast 273 314 8,700 -450 Descending FlightAware
07:52AM 42.3910 -88.5540 113° Southeast 278 320 8,700  Level FlightAware
07:53AM 42.3770 -88.5060 112° Southeast 279 321 8,700  Level FlightAware
07:53AM 42.3610 -88.4590 115° Southeast 277 319 8,700  Level FlightAware
07:54AM 42.3470 -88.4200 116° Southeast 278 320 8,700  Level FlightAware
07:54AM 42.3300 -88.3710 115° Southeast 278 320 8,700 -267 Level FlightAware
07:54AM 42.3230 -88.3490 113° Southeast 275 316 8,500 -1,200 Descending FlightAware
07:55AM 42.3100 -88.3100 114° Southeast 273 314 7,900 -1,527 Descending FlightAware
07:55AM 42.2870 -88.2700 128° Southeast 271 312 7,100 -1,600 Descending FlightAware
07:56AM 42.2730 -88.2530 138° Southeast 270 311 6,700 -1,500 Descending FlightAware
07:56AM 42.2480 -88.2240 139° Southeast 266 306 6,100 -1,309 Descending FlightAware
07:56AM 42.2220 -88.1950 140° Southeast 261 300 5,500 -1,300 Descending FlightAware
07:57AM 42.1950 -88.1640 140° Southeast 254 292 4,800 -1,091 Descending FlightAware
07:57AM 42.1720 -88.1390 141° Southeast 232 267 4,500 -764 Descending FlightAware
07:58AM 42.1480 -88.1120 140° Southeast 217 250 4,100 -800 Descending FlightAware
07:58AM 42.1370 -88.0980 137° Southeast 212 244 3,900 -750 Descending FlightAware
07:59AM 42.1190 -88.0780 141° Southeast 208 239 3,600 -750 Descending FlightAware
07:59AM 42.1080 -88.0650 139° Southeast 205 236 3,400 -1,050 Descending FlightAware
07:59AM 42.0900 -88.0450 140° Southeast 205 236 2,900 -1,200 Descending FlightAware
08:00AM 42.0670 -88.0200 141° Southeast 205 236 2,300 -1,067 Descending FlightAware
08:00AM 42.0570 -88.0080 138° Southeast 202 232 2,100 -1,050 Descending FlightAware
08:00AM 42.0400 -87.9890 140° Southeast 183 211 1,600 -982 Descending FlightAware
08:01AM 42.0220 -87.9690 140° Southeast 153 176 1,200 -800 Descending FlightAware
08:01AM 42.0150 -87.9600 136° Southeast 145 167 1,000 -750 Descending FlightAware
08:02AM 42.0030 -87.9470 141° Southeast 144 166 700 -764 Descending FlightAware
08:02AM 41.9880 -87.9310 142° Southeast 133 153 300 -800 Descending FlightAware